ONEWEB-0300, 49089

Orbit data source: Space-Track

ONEWEB-0300, 49089 is a payload satellite owned by One Web (NAA) (UK) in LEO that was launched on Sat, 21 Aug 2021 UTC via a SOYUZ-2-1B launch vehicle from the Tyuratam Missile And Space Complex (TTMTR). Payload-class satellites include a variety of spacecraft equipped with specific instruments for various scientific and technological missions. These include communications satellites like Starlink; space stations such as the ISS; scientific satellites like the Hubble; Earth observation satellites from companies like Planet Labs, Umbra, and HawkEye 360; GPS; miniature CubeSats for education and research; and military/defense satellites.

Loading next visibility...
Identifier
49089, 2021-075Q
Orbit
LEO
Country
Flag of UKUK
Related business
Manufacturer
One Web
Mission
Operational Commercial Communications
Bus & Motor
ARROW, Unknown motor
Mass
148 kg wet, ~140 kg dry
Launch date (UTC)
2021-08-21 (5 years ago)
Launch vehicle
SOYUZ-2-1B
Launch site
Tyuratam Missile And Space Complex (TTMTR)
Object type
Payload
Rocket body
Debris
Shape & HBR
Trap Box + 2 Pan, 6.7 m
Radar Cross Section
3.464 m², Large (>1 m²)

Expand to show TLE details & history
Last TLE update: 1 day ago

TLE from 1 day ago
0 ONEWEB-0300
1 49089U 21075Q   26174.96564794 -.00000327  00000-0 -94409-3 0  9998
2 49089  87.8952 349.3081 0001694  80.3821 279.7499 13.12440835236099
Epoch: 2026-06-23T23:10Z
TLE epoch observation values (Epoch: 2026-06-23T23:10:31.982Z)
Latitude
0.00002°
Longitude
89.5452°
Altitude
1,216.405 km
Speed
7.246 km/s
True Right ascension
23h 17m 13s
True Declination
0° 00' 00"
Sunlit
Object was in daylight at epoch
Visualization orbit readout
Latitude
Unknown
Longitude
Unknown
Altitude
Unknown
Speed
Unknown
Apparent Right ascension
Unknown
Apparent Declination
Unknown
Sunlit
N/A
Visualization observer readout
Local Sidereal Time
15:26:15
Azimuth
Unknown
Elevation
Unknown
Doppler factor
Unknown
Orbital elements
Apogee altitude
1,212.134 km
Perigee altitude
1,209.563 km
Semi-major axis
7,588.985 km
Eccentricity
0.00017
Inclination
87.8952°
RAAN
349.3081°
Arg. of periapsis
80.3821°
True anomaly
279.73077°
Mean anomaly
279.7499°
Eccentric anomaly
279.74033°
Mean motion
3.28298 °/min
Orbital period
109.66 mins
BSTAR
-0.00094409
Loading maneuver chart data...
Computing Atmospheric mass density...
Loading historical data...
Loading historical data...
Loading historical data...
Loading historical data...
Loading historical data...
Loading historical data...
Loading historical data...

Documentation

Showing up to 5 results
|